When you browse on this site, cookies collect data to enhance your experience and personalize the content and advertising you see.
Visit our Privacy Policy to learn more. By continuing to use the site, you agree to this use of cookies and data.
  • In Czech Republic
  • List of Countries
  • For 7 days
  • Water Temperature
  • Satellite Maps
  • Weather Map
  • Weather Widgets
  • user-avatar
    Login

    Hourly Weather Ganja

    Today, 20 January, Sunday

    Time Temperature Precipitation Wind Pressure Humidity
    00:00 +3°C° 0 mm 2 mps 728 mmHg 54%
    01:00 +3°C° 0 mm 1 mps 729 mmHg 55%
    02:00 +3°C° 0 mm 1 mps 729 mmHg 55%
    03:00 +2°C° 0 mm 2 mps 728 mmHg 51%
    04:00 +2°C° 0 mm 2 mps 729 mmHg 49%
    05:00 +2°C° 0 mm 2 mps 729 mmHg 48%
    06:00 +2°C° 0 mm 2 mps 729 mmHg 46%
    07:00 +4°C° 0 mm 1 mps 729 mmHg 43%
    08:00 +5°C° 0 mm 1 mps 730 mmHg 40%
    09:00 +6°C° 0 mm 1 mps 730 mmHg 34%
    10:00 +7°C° 0 mm 1 mps 730 mmHg 34%
    11:00 +7°C° 0 mm 1 mps 730 mmHg 33%
    12:00 +8°C° 0 mm 1 mps 730 mmHg 32%
    13:00 +8°C° 0 mm 1 mps 729 mmHg 32%
    14:00 +8°C° 0 mm 1 mps 729 mmHg 32%
    15:00 +8°C° 0 mm 1 mps 729 mmHg 33%
    16:00 +8°C° 0 mm 1 mps 730 mmHg 36%
    17:00 +7°C° 0 mm 1 mps 730 mmHg 40%
    18:00 +5°C° 0 mm 0 mps 731 mmHg 44%
    19:00 +4°C° 0 mm 0 mps 731 mmHg 45%
    20:00 +4°C° 0 mm 0 mps 731 mmHg 46%
    21:00 +4°C° 0 mm 0 mps 731 mmHg 47%
    22:00 +3°C° 0 mm 0 mps 731 mmHg 47%
    23:00 +3°C° 0 mm 0 mps 731 mmHg 48%

    Tomorrow, 21 January, Monday

    Time Temperature Precipitation Wind Pressure Humidity
    00:00 +3°C° 0 mm 0 mps 731 mmHg 48%
    01:00 +2°C° 0 mm 0 mps 731 mmHg 48%
    02:00 +3°C° 0 mm 1 mps 731 mmHg 48%
    03:00 +3°C° 0 mm 1 mps 731 mmHg 47%
    04:00 +3°C° 0 mm 1 mps 731 mmHg 46%
    05:00 +3°C° 0 mm 1 mps 731 mmHg 45%
    06:00 +2°C° 0 mm 1 mps 731 mmHg 44%
    07:00 +3°C° 0 mm 1 mps 731 mmHg 41%
    08:00 +4°C° 0 mm 1 mps 731 mmHg 38%
    09:00 +5°C° 0 mm 1 mps 731 mmHg 36%
    10:00 +6°C° 0 mm 1 mps 730 mmHg 35%
    11:00 +6°C° 0 mm 1 mps 730 mmHg 34%
    12:00 +7°C° 0 mm 1 mps 729 mmHg 33%
    13:00 +7°C° 0 mm 1 mps 728 mmHg 34%
    14:00 +7°C° 0 mm 1 mps 728 mmHg 34%
    15:00 +8°C° 0 mm 1 mps 727 mmHg 34%
    16:00 +7°C° 0 mm 1 mps 727 mmHg 38%
    17:00 +6°C° 0 mm 1 mps 727 mmHg 41%
    18:00 +4°C° 0 mm 0 mps 727 mmHg 44%
    19:00 +5°C° 0 mm 1 mps 727 mmHg 43%
    20:00 +5°C° 0 mm 1 mps 727 mmHg 43%
    21:00 +4°C° 0 mm 2 mps 727 mmHg 43%
    22:00 +3°C° 0 mm 2 mps 727 mmHg 43%
    23:00 +3°C° 0 mm 2 mps 727 mmHg 43%

    Day after tomorrow, 22 January, Tuesday

    Time Temperature Precipitation Wind Pressure Humidity
    00:00 +2°C° 0 mm 3 mps 726 mmHg 42%
    01:00 +2°C° 0 mm 3 mps 726 mmHg 42%
    02:00 +2°C° 0 mm 3 mps 726 mmHg 42%
    03:00 +2°C° 0 mm 3 mps 726 mmHg 41%
    04:00 +2°C° 0 mm 3 mps 725 mmHg 41%
    05:00 +2°C° 0 mm 3 mps 725 mmHg 41%
    06:00 +2°C° 0 mm 3 mps 725 mmHg 41%
    07:00 +2°C° 0 mm 3 mps 725 mmHg 39%
    08:00 +3°C° 0 mm 3 mps 725 mmHg 37%
    09:00 +4°C° 0 mm 3 mps 725 mmHg 35%
    10:00 +7°C° 0 mm 3 mps 725 mmHg 32%
    11:00 +8°C° 0 mm 3 mps 725 mmHg 29%
    12:00 +10°C° 0 mm 3 mps 725 mmHg 26%
    13:00 +10°C° 0 mm 3 mps 725 mmHg 27%
    14:00 +10°C° 0 mm 4 mps 725 mmHg 28%
    15:00 +10°C° 0 mm 4 mps 725 mmHg 29%
    16:00 +9°C° 0 mm 3 mps 725 mmHg 33%
    17:00 +8°C° 0 mm 2 mps 726 mmHg 37%
    18:00 +7°C° 0 mm 2 mps 726 mmHg 40%
    19:00 +7°C° 0 mm 2 mps 726 mmHg 42%
    20:00 +7°C° 0 mm 1 mps 727 mmHg 44%
    21:00 +6°C° 0 mm 1 mps 727 mmHg 46%
    22:00 +6°C° 0 mm 1 mps 727 mmHg 46%
    23:00 +5°C° 0 mm 1 mps 727 mmHg 47%

    23 January, Wednesday

    Time Temperature Precipitation Wind Pressure Humidity
    00:00 +5°C° 0 mm 1 mps 728 mmHg 48%
    01:00 +5°C° 0 mm 1 mps 728 mmHg 48%
    02:00 +4°C° 0 mm 1 mps 728 mmHg 48%
    03:00 +4°C° 0 mm 1 mps 728 mmHg 48%
    04:00 +3°C° 0 mm 1 mps 728 mmHg 48%
    05:00 +2°C° 0 mm 0 mps 728 mmHg 49%
    06:00 +2°C° 0 mm 0 mps 728 mmHg 49%
    07:00 +4°C° 0 mm 1 mps 728 mmHg 47%
    08:00 +4°C° 0 mm 1 mps 728 mmHg 44%
    09:00 +5°C° 0 mm 1 mps 729 mmHg 42%
    10:00 +5°C° 0 mm 2 mps 729 mmHg 44%
    11:00 +5°C° 0 mm 2 mps 728 mmHg 46%
    12:00 +5°C° 0 mm 3 mps 728 mmHg 47%
    13:00 +5°C° 0 mm 3 mps 728 mmHg 51%
    14:00 +5°C° 0 mm 3 mps 728 mmHg 54%
    15:00 +5°C° 0 mm 3 mps 728 mmHg 57%
    16:00 +5°C° 0 mm 2 mps 728 mmHg 63%
    17:00 +5°C° 0 mm 2 mps 729 mmHg 70%
    18:00 +4°C° 0 mm 2 mps 729 mmHg 76%
    19:00 +3°C° 0 mm 2 mps 730 mmHg 79%
    20:00 +3°C° 0 mm 2 mps 730 mmHg 83%
    21:00 +4°C° 0 mm 1 mps 730 mmHg 86%
    22:00 +3°C° 0 mm 1 mps 730 mmHg 88%
    23:00 +3°C° 0 mm 1 mps 730 mmHg 90%

    24 January, Thursday

    Time Temperature Precipitation Wind Pressure Humidity
    00:00 +3°C° 0 mm 1 mps 731 mmHg 91%
    01:00 +2°C° 0 mm 0 mps 730 mmHg 90%
    02:00 +2°C° 0 mm 0 mps 730 mmHg 89%
    03:00 +2°C° 0 mm 0 mps 730 mmHg 88%
    04:00 +3°C° 0 mm 1 mps 730 mmHg 87%
    05:00 +2°C° 0 mm 1 mps 730 mmHg 87%
    06:00 +2°C° 0 mm 1 mps 730 mmHg 86%
    07:00 +3°C° 0 mm 1 mps 730 mmHg 80%
    08:00 +3°C° 0 mm 1 mps 731 mmHg 75%
    09:00 +4°C° 0 mm 1 mps 731 mmHg 69%
    10:00 +5°C° 0 mm 1 mps 730 mmHg 64%
    11:00 +6°C° 0 mm 1 mps 730 mmHg 60%
    12:00 +7°C° 0 mm 1 mps 730 mmHg 55%
    13:00 +7°C° 0 mm 1 mps 729 mmHg 54%
    14:00 +7°C° 0 mm 1 mps 729 mmHg 53%
    15:00 +8°C° 0 mm 1 mps 729 mmHg 52%
    16:00 +7°C° 0 mm 1 mps 729 mmHg 55%
    17:00 +6°C° 0 mm 1 mps 729 mmHg 59%
    18:00 +6°C° 0 mm 1 mps 730 mmHg 62%
    19:00 +5°C° 0 mm 1 mps 730 mmHg 64%
    20:00 +5°C° 0 mm 1 mps 730 mmHg 66%
    21:00 +4°C° 0 mm 2 mps 730 mmHg 67%
    22:00 +4°C° 0 mm 1 mps 729 mmHg 70%
    23:00 +4°C° 0 mm 1 mps 729 mmHg 72%

    25 January, Friday

    Time Temperature Precipitation Wind Pressure Humidity
    00:00 +4°C° 0 mm 1 mps 729 mmHg 75%
    01:00 +3°C° 0 mm 1 mps 729 mmHg 75%
    02:00 +3°C° 0 mm 1 mps 728 mmHg 75%
    03:00 +3°C° 0 mm 1 mps 728 mmHg 76%
    04:00 +3°C° 0 mm 1 mps 728 mmHg 74%
    05:00 +3°C° 0 mm 1 mps 728 mmHg 73%
    06:00 +3°C° 0 mm 1 mps 727 mmHg 72%
    07:00 +4°C° 0 mm 1 mps 727 mmHg 70%
    08:00 +4°C° 0 mm 1 mps 727 mmHg 67%
    09:00 +5°C° 0 mm 1 mps 727 mmHg 65%
    10:00 +5°C° 0 mm 2 mps 726 mmHg 59%
    11:00 +6°C° 0 mm 2 mps 726 mmHg 53%
    12:00 +5°C° 0 mm 3 mps 725 mmHg 47%
    13:00 +7°C° 0 mm 3 mps 724 mmHg 47%
    14:00 +7°C° 0 mm 3 mps 724 mmHg 46%
    15:00 +8°C° 0 mm 3 mps 723 mmHg 46%
    16:00 +7°C° 0 mm 3 mps 723 mmHg 50%
    17:00 +5°C° 0 mm 3 mps 723 mmHg 54%
    18:00 +5°C° 0 mm 3 mps 723 mmHg 57%
    19:00 +5°C° 0 mm 3 mps 723 mmHg 57%
    20:00 +4°C° 0 mm 3 mps 723 mmHg 57%
    21:00 +4°C° 0 mm 3 mps 723 mmHg 57%
    22:00 +4°C° 0 mm 3 mps 723 mmHg 57%
    23:00 +4°C° 0 mm 3 mps 722 mmHg 57%
    Show more